Weather History for Edwards AFB North Base, CA

Change the Weather History Date:

Tuesday, December 17, 2013

  Actual Average (KEDW) Record (KEDW)
Temperature  
Mean Temperature 44 °F -  
Max Temperature 61 °F 55 °F 73 °F (1998)
Min Temperature 28 °F 27 °F 19 °F (2003)
Degree Days  
Heating Degree Days 20    
Moisture  
Dew Point 21 °F    
Average Humidity 47    
Maximum Humidity 69    
Minimum Humidity 21    
Precipitation  
Precipitation 0.00 in - - ()
Sea Level Pressure  
Sea Level Pressure 30.26 in    
Wind  
Wind Speed 0 mph (NNW)    
Max Wind Speed 5 mph    
Max Gust Speed -    
Visibility 10 miles    
Events      
Averages and records for this station are not official NWS values.
T = Trace of Precipitation, MM = Missing Value Source: NWS Daily Summary

Daily Weather History Graph

Daily Weather History Graph

Search for Another Location

Airport:

Trip Planner

Search our weather history database for the weather conditions in past years. The results will help you decide how hot, cold, wet, or windy it might be!

Date:

Astronomy

Dec. 17, 2013 Rise Set
Actual Time 6:53 AM PST 4:42 PM PST
Civil Twilight 6:25 AM PST 5:10 PM PST
Nautical Twilight 5:53 AM PST 5:41 PM PST
Astronomical Twilight 5:22 AM PST 6:12 PM PST
Moon 5:23 PM PST (12/17) 6:55 AM PST (12/17)
Length of Visible Light 10h 44m
Length of Day
9h 48m
Full, 100% of the Moon is Illuminated
Dec 17
Full
Dec 25
Last Quarter
Jan 1
New
Jan 7
First Quarter
Jan 15
Full

Hourly Weather History & Observations

Time (PST) Temp. Windchill Dew Point Humidity Pressure Visibility Wind Dir Wind Speed Gust Speed Precip Events Conditions
12:55 AM 32.0 °F - 19.9 °F 61% 30.31 in 10.0 mi Calm Calm - N/A   Clear
1:55 AM 33.1 °F - 19.9 °F 59% 30.31 in 10.0 mi Calm Calm - N/A   Clear
2:55 AM 30.9 °F 26.2 °F 19.0 °F 61% 30.31 in 10.0 mi NE 4.6 mph - N/A   Clear
3:55 AM 30.0 °F - 19.0 °F 64% 30.30 in 10.0 mi Calm Calm - N/A   Clear
4:55 AM 28.9 °F - 19.0 °F 67% 30.31 in 10.0 mi Calm Calm - N/A   Clear
5:55 AM 28.0 °F 24.2 °F 19.0 °F 69% 30.33 in 10.0 mi West 3.5 mph - N/A   Clear
6:55 AM 30.0 °F - 19.0 °F 64% 30.34 in 10.0 mi Calm Calm - N/A   Clear
7:55 AM 33.1 °F - 19.9 °F 59% 30.35 in 10.0 mi Calm Calm - N/A   Clear
8:55 AM 36.0 °F - 21.9 °F 57% 30.36 in 10.0 mi Calm Calm - N/A   Clear
9:55 AM 41.0 °F - 24.1 °F 51% 30.35 in 10.0 mi Calm Calm - N/A   Clear
10:55 AM 46.0 °F - 24.1 °F 42% 30.32 in 10.0 mi Calm Calm - N/A   Clear
11:55 AM 54.0 °F - 24.1 °F 31% 30.27 in 10.0 mi Calm Calm - N/A   Clear
12:55 PM 57.0 °F - 24.1 °F 28% 30.23 in 10.0 mi Calm Calm - N/A   Clear
1:55 PM 60.1 °F - 21.0 °F 22% 30.20 in 10.0 mi Calm Calm - N/A   Clear
2:55 PM 61.0 °F - 19.9 °F 21% 30.19 in 10.0 mi Calm Calm - N/A   Clear
3:55 PM 61.0 °F - 23.0 °F 23% 30.19 in 10.0 mi Calm Calm - N/A   Clear
4:55 PM 53.1 °F - 23.0 °F 31% 30.19 in 10.0 mi Calm Calm - N/A   Clear
5:55 PM 46.0 °F - 21.0 °F 37% 30.21 in 10.0 mi Calm Calm - N/A   Clear
6:55 PM 45.0 °F - 21.9 °F 40% 30.20 in 10.0 mi Calm Calm - N/A   Clear
7:55 PM 43.0 °F - 21.0 °F 42% 30.20 in 10.0 mi Calm Calm - N/A   Clear
8:55 PM 42.1 °F - 21.9 °F 45% 30.20 in 10.0 mi Calm Calm - N/A   Clear
9:55 PM 41.0 °F - 21.9 °F 47% 30.19 in 10.0 mi Calm Calm - N/A   Clear
10:55 PM 41.0 °F - 23.0 °F 49% 30.16 in 10.0 mi Calm Calm - N/A   Clear
11:55 PM 39.0 °F - 23.0 °F 53% 30.13 in 10.0 mi Calm Calm - N/A   Clear